[[{"header":{"parameterUnit":"m.s-1","parameterCategory":1,"la1":30.2991,"la2":30.254,"lo1":-89.0895,"lo2":-89.0444,"dy":0.0017,"dx":0.0017,"nx":28,"ny":28,"refTime":"2024-05-05T21:00:00:Z","depth":0,"parameterNumber":2,"parameterNumberName":"U-component_of_WINDS"},"data":[0,0,0,0,0,0,0,0,0,0,0,0,0,0,0,0,0,0,0,0,0,0,0,0,0,0,0,0,0,0,0,0,0,0,0,0,0,0,0,0,0,0,0,0,0,0,0,0,0,0,0,0,0,0,0,0,0,0,-0.6139,-0.6139,0,-0.6131,-0.6131,-0.6131,-0.6128,-0.6128,-0.6128,-0.6128,-0.6118,-0.6117,-0.6117,0,0,0,0,0,0,0,0,0,0,0,0,0,-0.6153,-0.6153,-0.6139,-0.6139,-0.6139,-0.6131,-0.6131,-0.613,-0.6128,-0.6128,-0.6128,-0.6128,-0.6118,-0.6117,-0.6117,0,0,0,0,0,0,0,0,0,0,0,0,0,-0.6146,-0.6153,-0.614,-0.6137,-0.6136,-0.6131,-0.6131,-0.613,-0.6128,-0.6128,-0.6128,-0.6128,-0.6118,-0.6117,-0.6117,-0.6113,0,0,-0.6116,-0.6115,0,0,0,0,0,0,0,0,-0.6147,-0.6146,-0.6137,-0.6137,-0.6137,-0.613,-0.6132,-0.6125,-0.6128,-0.6131,-0.6128,-0.6128,-0.6122,-0.6121,-0.6119,-0.6113,-0.6112,-0.6116,-0.6115,-0.6115,-0.6115,0,0,0,0,0,0,0,-0.6147,-0.6146,-0.6136,-0.6137,-0.6137,-0.6136,-0.6135,-0.613,-0.6126,-0.6131,-0.613,-0.6129,-0.6122,-0.612,-0.6119,-0.6112,-0.6116,-0.6115,-0.6115,-0.6115,-0.6102,-0.6102,0,0,0,0,0,0,-0.6148,-0.6146,-0.6136,-0.6136,-0.6142,-0.6136,-0.6135,-0.6132,-0.6126,-0.6125,-0.6129,-0.6129,-0.612,-0.6119,-0.6119,-0.6114,-0.6115,-0.6115,-0.6114,-0.6102,-0.6102,-0.6102,0,0,0,0,0,0,-0.6148,-0.6147,-0.6137,-0.6141,-0.614,-0.6135,-0.6133,-0.6132,-0.613,-0.6125,-0.6124,-0.6128,-0.612,-0.6119,-0.6115,-0.6113,-0.6115,-0.6114,-0.6103,-0.6102,-0.6102,-0.6104,0,0,0,0,0,0,-0.6149,-0.6147,-0.6146,-0.6141,-0.6139,-0.6133,-0.6133,-0.6132,-0.6129,-0.6129,-0.6124,-0.6123,-0.612,-0.6115,-0.6114,-0.6113,-0.6114,-0.6103,-0.6102,-0.6102,-0.6104,-0.6104,-0.6104,0,0,0,0,0,-0.6149,-0.6146,-0.6146,-0.6145,-0.6137,-0.6133,-0.6132,-0.6129,-0.6129,-0.6128,-0.6125,-0.6123,-0.6114,-0.6115,-0.6114,-0.6112,-0.6103,-0.6103,-0.6102,-0.6104,-0.6104,-0.6104,0,0,0,0,0,0,-0.6151,-0.6146,-0.6145,-0.614,-0.6137,-0.6132,-0.613,-0.6129,-0.6125,-0.6125,-0.6122,-0.6121,-0.6116,-0.6114,-0.6115,-0.6108,-0.6108,-0.6108,-0.611,-0.611,-0.611,-0.6111,-0.6113,0,0,0,0,0,-0.615,-0.6147,-0.6143,-0.6139,-0.6138,-0.6134,-0.6132,-0.6131,-0.6127,-0.6125,-0.6122,-0.6118,-0.6115,-0.6112,-0.6109,-0.6104,-0.6103,-0.6102,-0.6102,-0.6102,-0.6102,-0.61,-0.61,-0.6102,-0.6102,-0.6102,0,0,-0.615,-0.6147,-0.6145,-0.614,-0.6137,-0.6134,-0.6133,-0.613,-0.6127,-0.6125,-0.612,-0.6118,-0.6114,-0.6109,-0.6107,-0.6107,-0.6101,-0.6102,-0.6102,-0.6102,-0.61,-0.61,-0.6099,-0.6102,-0.6102,-0.6102,0,0,-0.6147,-0.6145,-0.6141,-0.6139,-0.6135,-0.6133,-0.6132,-0.6128,-0.6126,-0.6122,-0.612,-0.6117,-0.6111,-0.6108,-0.6106,-0.6103,-0.6102,-0.6102,-0.6102,-0.61,-0.61,-0.6099,-0.6099,-0.6098,-0.6102,-0.6102,-0.6102,0,-0.6147,-0.6142,-0.614,-0.6137,-0.6135,-0.6133,-0.613,-0.6127,-0.6122,-0.6121,-0.6121,-0.6113,-0.611,-0.6105,-0.6105,-0.6103,-0.6102,-0.6102,-0.61,-0.61,-0.61,-0.6099,-0.6098,-0.6102,-0.6102,-0.6102,-0.6102,0,-0.6142,-0.6139,-0.6137,-0.6133,-0.613,-0.6127,-0.6125,-0.6122,-0.6121,-0.6119,-0.6115,-0.6111,-0.6107,-0.6106,-0.6104,-0.6101,-0.6101,-0.6101,-0.61,-0.6099,-0.6099,-0.6098,-0.6102,-0.6102,-0.6102,-0.6102,0,0,-0.6139,-0.6135,-0.6134,-0.6132,-0.6128,-0.6126,-0.6123,-0.6119,-0.6117,-0.6114,-0.6112,-0.6107,-0.6107,-0.6104,-0.6102,-0.61,-0.6099,-0.61,-0.61,-0.61,-0.6096,-0.6096,-0.6096,-0.6098,-0.6098,-0.6098,-0.6096,0,-0.6136,-0.6131,-0.6129,-0.6125,-0.6122,-0.6121,-0.6118,-0.6115,-0.6114,-0.6111,-0.6109,-0.6106,-0.6105,-0.6104,-0.6102,-0.61,-0.6098,-0.61,-0.6096,-0.6096,-0.6097,-0.6095,-0.6096,-0.6094,-0.6096,-0.6096,-0.6096,0,-0.6131,-0.6129,-0.6124,-0.6122,-0.612,-0.6118,-0.6115,-0.6112,-0.6109,-0.6108,-0.6106,-0.6105,-0.6101,-0.6102,-0.6098,-0.6099,-0.6097,-0.6096,-0.6096,-0.6095,-0.6095,-0.6095,-0.6093,-0.6093,-0.6095,-0.6095,-0.6095,0,-0.613,-0.6126,-0.6122,-0.6121,-0.6117,-0.6116,-0.6114,-0.6112,-0.611,-0.6107,-0.6106,-0.6103,-0.6101,-0.6098,-0.6096,-0.6097,-0.6092,-0.6092,-0.6091,-0.6091,-0.609,-0.609,-0.6088,-0.6089,-0.6089,-0.6089,-0.6089,0,-0.6127,-0.6124,-0.6122,-0.612,-0.6117,-0.6115,-0.6112,-0.6111,-0.6108,-0.6106,-0.6105,-0.6103,-0.61,-0.6097,-0.6096,-0.6093,-0.6092,-0.6091,-0.609,-0.6091,-0.6091,-0.609,-0.609,-0.6089,-0.6089,-0.6089,-0.6089,0,-0.6125,-0.6123,-0.6119,-0.6117,-0.6116,-0.6114,-0.6112,-0.611,-0.6108,-0.6105,-0.6105,-0.6102,-0.6099,-0.6097,-0.6093,-0.6092,-0.6089,-0.6088,-0.609,-0.609,-0.6089,-0.6089,-0.6086,-0.6085,-0.6087,-0.6087,-0.6087,0,-0.6122,-0.612,-0.6118,-0.6116,-0.6115,-0.6113,-0.6111,-0.6109,-0.6108,-0.6105,-0.6103,-0.61,-0.6098,-0.6094,-0.6091,-0.6089,-0.6088,-0.6087,-0.6088,-0.6088,-0.6088,-0.6088,-0.6088,-0.6087,-0.6087,-0.6087,-0.6087,0,-0.6119,-0.6118,-0.6116,-0.6114,-0.6112,-0.611,-0.6108,-0.6107,-0.6105,-0.6103,-0.6101,-0.6099,-0.6096,-0.6093,-0.609,-0.6088,-0.6087,-0.6087,-0.6087,-0.6087,-0.6088,-0.6088,-0.609,-0.6087,-0.6087,-0.6087,-0.6087,-0.6087,-0.6117,-0.6115,-0.6113,-0.6111,-0.6109,-0.6108,-0.6106,-0.6105,-0.6103,-0.61,-0.6099,-0.6096,-0.6094,-0.609,-0.6089,-0.6087,-0.6087,-0.6086,-0.6086,-0.6086,-0.6086,-0.6089,-0.6086,-0.6086,-0.6086,-0.6086,-0.6086,0,-0.6113,-0.6112,-0.611,-0.6108,-0.6106,-0.6106,-0.6104,-0.6103,-0.61,-0.6099,-0.6097,-0.6094,-0.6091,-0.6089,-0.6087,-0.6086,-0.6085,-0.6085,-0.6085,-0.6085,-0.6086,-0.6087,-0.6086,-0.6086,-0.6086,-0.6086,-0.6086,-0.6086,-0.6111,-0.6109,-0.6108,-0.6105,-0.6104,-0.6102,-0.6101,-0.6099,-0.6098,-0.6095,-0.6093,-0.6092,-0.609,-0.6088,-0.6086,-0.6085,-0.6084,-0.6084,-0.6084,-0.6085,-0.6085,-0.6085,-0.6085,-0.6084,-0.6084,-0.6083,-0.6083,-0.6083]},{"header":{"parameterUnit":"m.s-1","parameterCategory":1,"la1":30.2991,"la2":30.254,"lo1":-89.0895,"lo2":-89.0444,"dy":0.0017,"dx":0.0017,"nx":28,"ny":28,"refTime":"2024-05-05T21:00:00:Z","depth":0,"parameterNumber":3,"parameterNumberName":"V-component_of_WINDS"},"data":[0,0,0,0,0,0,0,0,0,0,0,0,0,0,0,0,0,0,0,0,0,0,0,0,0,0,0,0,0,0,0,0,0,0,0,0,0,0,0,0,0,0,0,0,0,0,0,0,0,0,0,0,0,0,0,0,0,0,6.1392,6.1392,0,6.1342,6.1341,6.134,6.1299,6.1298,6.1298,6.1297,6.124,6.1239,6.1238,0,0,0,0,0,0,0,0,0,0,0,0,0,6.145,6.1449,6.1392,6.1392,6.1391,6.1342,6.1341,6.134,6.1299,6.1298,6.1298,6.1297,6.124,6.1239,6.1238,0,0,0,0,0,0,0,0,0,0,0,0,0,6.1415,6.1449,6.1392,6.1364,6.1361,6.1342,6.1341,6.134,6.1299,6.1298,6.1298,6.1297,6.1241,6.1239,6.1237,6.124,0,0,6.1232,6.1231,0,0,0,0,0,0,0,0,6.1417,6.1413,6.1369,6.1366,6.1363,6.1326,6.134,6.1306,6.1299,6.1322,6.1297,6.1297,6.1269,6.1265,6.1256,6.1237,6.1234,6.1232,6.1231,6.123,6.123,0,0,0,0,0,0,0,6.1419,6.1414,6.1372,6.1369,6.1365,6.1354,6.1348,6.1334,6.1299,6.132,6.1317,6.1312,6.1267,6.1258,6.1255,6.1234,6.1232,6.1231,6.1229,6.1229,6.1216,6.1217,0,0,0,0,0,0,6.1427,6.1417,6.1374,6.137,6.1389,6.1353,6.1347,6.1338,6.13,6.1293,6.1313,6.131,6.1261,6.1257,6.1252,6.1254,6.123,6.1229,6.1228,6.1216,6.1216,6.1217,0,0,0,0,0,0,6.1428,6.1423,6.1376,6.1393,6.1386,6.1353,6.1344,6.1338,6.1329,6.1294,6.1287,6.131,6.1261,6.1255,6.1244,6.1251,6.1228,6.1226,6.1215,6.1216,6.1217,6.1256,0,0,0,0,0,0,6.143,6.1424,6.1425,6.1393,6.1385,6.1369,6.1344,6.1337,6.1327,6.1323,6.129,6.1284,6.126,6.1247,6.1242,6.1248,6.1225,6.1214,6.1215,6.1216,6.1253,6.1258,6.1262,0,0,0,0,0,6.1432,6.1436,6.1425,6.142,6.1386,6.1369,6.1365,6.1339,6.1327,6.1328,6.1306,6.1285,6.1252,6.1246,6.1241,6.1246,6.1213,6.1215,6.1216,6.1252,6.1257,6.1262,0,0,0,0,0,0,6.1466,6.1431,6.1418,6.1412,6.1395,6.1362,6.1362,6.1345,6.1328,6.1325,6.1292,6.1285,6.1278,6.1261,6.1255,6.1248,6.123,6.123,6.1259,6.1263,6.1267,6.1271,6.1224,0,0,0,0,0,6.1474,6.1464,6.1434,6.1431,6.1423,6.1395,6.1386,6.1369,6.1348,6.1339,6.1316,6.1296,6.1281,6.1271,6.1256,6.1252,6.1244,6.1253,6.1258,6.1261,6.1261,6.126,6.1263,6.1222,6.1222,6.1222,0,0,6.1487,6.1467,6.1463,6.1438,6.1422,6.1412,6.1388,6.1378,6.1371,6.1337,6.1326,6.1309,6.1284,6.1278,6.1273,6.1263,6.1272,6.1263,6.1266,6.1264,6.1262,6.1266,6.1269,6.1223,6.1223,6.1223,0,0,6.1507,6.1492,6.1489,6.1474,6.1452,6.1433,6.1433,6.1404,6.1392,6.1382,6.1357,6.1347,6.1322,6.1306,6.1295,6.1314,6.1294,6.131,6.133,6.1329,6.1332,6.1335,6.1342,6.1345,6.1311,6.1311,6.1311,0,6.1527,6.1513,6.1489,6.1482,6.1472,6.1445,6.1441,6.1428,6.1401,6.1394,6.1384,6.1355,6.1336,6.1326,6.1331,6.1323,6.1321,6.1312,6.1334,6.1337,6.1339,6.1345,6.1348,6.1313,6.1313,6.1313,6.1312,0,6.1538,6.1529,6.1529,6.1507,6.1497,6.1492,6.1467,6.146,6.1445,6.1427,6.1418,6.1395,6.1376,6.1372,6.1355,6.1361,6.1356,6.1341,6.1321,6.1345,6.1351,6.1353,6.1316,6.1315,6.1315,6.1314,0,0,6.1574,6.1542,6.1542,6.1533,6.1508,6.15,6.1495,6.1478,6.1473,6.1456,6.1451,6.1433,6.142,6.1407,6.1389,6.1388,6.1406,6.1373,6.1372,6.138,6.1412,6.1422,6.1426,6.1394,6.1395,6.1395,6.1414,0,6.159,6.158,6.156,6.1556,6.1548,6.1524,6.1519,6.1503,6.1488,6.1478,6.1461,6.1449,6.1433,6.1425,6.1424,6.1404,6.1412,6.1403,6.1388,6.1387,6.1393,6.1428,6.1439,6.1458,6.1416,6.1416,6.1416,0,6.1606,6.1594,6.1589,6.1568,6.1564,6.156,6.1545,6.1536,6.1518,6.1508,6.1496,6.1477,6.147,6.1455,6.1445,6.144,6.1433,6.1423,6.1423,6.1419,6.1402,6.1424,6.1463,6.1465,6.142,6.1419,6.1419,0,6.1633,6.1615,6.1611,6.1604,6.1578,6.1577,6.1566,6.1548,6.154,6.1527,6.1521,6.1507,6.1498,6.1488,6.1466,6.1457,6.1459,6.1441,6.1449,6.1449,6.1448,6.1448,6.1485,6.1446,6.1446,6.1446,6.1446,0,6.1652,6.165,6.1623,6.162,6.1618,6.1596,6.1594,6.1581,6.1566,6.156,6.1539,6.1534,6.1506,6.1497,6.148,6.1476,6.1472,6.1463,6.1458,6.1464,6.1465,6.1457,6.1454,6.1447,6.1447,6.1447,6.1446,0,6.168,6.1662,6.1656,6.1634,6.1629,6.1628,6.1609,6.1606,6.1591,6.1584,6.1581,6.1558,6.1547,6.1526,6.1508,6.1497,6.1496,6.1488,6.1502,6.1499,6.1508,6.1507,6.1539,6.1542,6.1503,6.1504,6.1504,0,6.1692,6.1691,6.167,6.1666,6.1657,6.1649,6.1642,6.1622,6.1615,6.1598,6.1596,6.1585,6.1574,6.1559,6.1539,6.1527,6.1518,6.1531,6.1515,6.1522,6.1518,6.1517,6.1517,6.1533,6.1533,6.1534,6.1534,0,6.1716,6.1708,6.17,6.1689,6.1683,6.1673,6.1661,6.1659,6.1636,6.163,6.162,6.1613,6.1597,6.1586,6.1572,6.156,6.1543,6.154,6.1541,6.1546,6.1554,6.155,6.151,6.1538,6.1538,6.1538,6.1537,6.1537,6.1736,6.1734,6.172,6.1712,6.1703,6.1694,6.1691,6.1677,6.1669,6.1656,6.1645,6.1637,6.1622,6.1601,6.1591,6.1584,6.1576,6.1577,6.1577,6.1577,6.158,6.1557,6.1581,6.1581,6.1581,6.1581,6.1581,0,6.1758,6.1749,6.1742,6.1729,6.1723,6.1712,6.17,6.1696,6.1689,6.1678,6.1669,6.1659,6.165,6.1632,6.162,6.1619,6.1611,6.1616,6.1615,6.1613,6.1588,6.1588,6.1623,6.1623,6.1623,6.1623,6.1623,6.1623,6.1769,6.1766,6.1757,6.175,6.1741,6.1734,6.1729,6.1721,6.1712,6.1702,6.1695,6.1685,6.1671,6.1659,6.165,6.1645,6.1641,6.1649,6.1642,6.1618,6.1614,6.161,6.161,6.1649,6.1649,6.1666,6.1667,6.1667]}]]